Guymon, OK

11:47 PM CDT on August 16, 2017 (GMT -0500)
Guymon Municipal

Weather History for KGUY - July, 2013

Change the Weather History Date:

Monday, July 22, 2013

  Actual Average Record
Temperature  
Mean Temperature 87 °F 80 °F  
Max Temperature 102 °F 94 °F 106 °F (2016)
Min Temperature 72 °F 66 °F 59 °F (2006)
Degree Days  
Heating Degree Days 0 0  
Month to date heating degree days 0 0  
Since 1 June heating degree days 0 8  
Since 1 July heating degree days 0 0  
Cooling Degree Days 22 15  
Month to date cooling degree days 330 320  
Year to date cooling degree days 970 708  
Since 1 June cooling degree days 766 600  
Growing Degree Days 36 (Base 50)    
Moisture  
Dew Point 56 °F    
Average Humidity 43    
Maximum Humidity 66    
Minimum Humidity 19    
Precipitation  
Precipitation 0.00 in 0.08 in 0.48 in (2004)
Month to date precipitation 0.72 1.87  
Year to date precipitation 6.00 11.06  
Snow  
Snow 0.00 in - - ()
Month to date snowfall 0.0  
Since 1 June snowfall T  
Since 1 July snowfall 0.0  
Snow Depth 0.00 in    
Sea Level Pressure  
Sea Level Pressure 29.72 in    
Wind  
Wind Speed 13 mph (SSW)    
Max Wind Speed 22 mph    
Max Gust Speed 28 mph    
Visibility 10 miles    
Events      
T = Trace of Precipitation, MM = Missing Value Source: NWS Daily Summary

Daily Weather History Graph

Daily Weather History Graph

Search for Another Location

Airport or City:

Trip Planner

Search our weather history database for the weather conditions in past years. The results will help you decide how hot, cold, wet, or windy it might be!

Date:

Astronomy

Jul. 22, 2013 Rise Set
Actual Time 6:44 AM CDT 9:00 PM CDT
Civil Twilight 6:14 AM CDT 9:29 PM CDT
Nautical Twilight 5:38 AM CDT 10:05 PM CDT
Astronomical Twilight 4:59 AM CDT 10:44 PM CDT
Moon 8:50 PM CDT (7/22) 6:41 AM CDT (7/22)
Length of Visible Light 15h 14m
Length of Day
14h 15m
Full, 100% of the Moon is Illuminated
Jul 22
Full
Jul 22
Full
Jul 29
Last Quarter
Aug 6
New
Aug 14
First Quarter

Hourly Weather History & Observations

Time (CDT) Temp. Heat Index Dew Point Humidity Pressure Visibility Wind Dir Wind Speed Gust Speed Precip Events Conditions
12:53 AM 80.1 °F 80.1 °F 55.0 °F 42% 29.74 in 10.0 mi SSW 16.1 mph - N/A   Clear
1:53 AM 78.1 °F - 55.9 °F 46% 29.74 in 10.0 mi SSW 15.0 mph - N/A   Clear
2:53 AM 77.0 °F - 57.0 °F 50% 29.73 in 10.0 mi SSW 15.0 mph - N/A   Clear
3:53 AM 73.9 °F - 57.0 °F 55% 29.73 in 10.0 mi SSW 15.0 mph - N/A   Clear
4:53 AM 73.0 °F - 57.9 °F 59% 29.72 in 10.0 mi SSW 12.7 mph - N/A   Clear
5:53 AM 72.0 °F - 57.9 °F 61% 29.72 in 10.0 mi SSW 12.7 mph - N/A   Clear
6:53 AM 72.0 °F - 59.0 °F 64% 29.72 in 10.0 mi SSW 12.7 mph - N/A   Clear
7:53 AM 75.9 °F - 60.1 °F 58% 29.74 in 10.0 mi SSW 5.8 mph - N/A   Clear
8:53 AM 82.0 °F 82.4 °F 60.1 °F 47% 29.75 in 10.0 mi SSW 12.7 mph - N/A   Clear
9:53 AM 88.0 °F 87.1 °F 59.0 °F 37% 29.74 in 10.0 mi SW 17.3 mph 23.0 mph N/A   Clear
10:53 AM 93.0 °F 92.0 °F 57.9 °F 31% 29.73 in 10.0 mi SW 17.3 mph 24.2 mph N/A   Clear
11:53 AM 96.1 °F 94.8 °F 57.0 °F 27% 29.75 in 10.0 mi SW 10.4 mph - N/A   Clear
12:53 PM 98.1 °F 96.8 °F 57.0 °F 25% 29.73 in 10.0 mi SSW 10.4 mph 20.7 mph N/A   Clear
1:53 PM 98.1 °F 96.1 °F 54.0 °F 23% 29.72 in 10.0 mi SSW 16.1 mph 25.3 mph N/A   Clear
2:53 PM 100.0 °F 97.9 °F 54.0 °F 21% 29.70 in 10.0 mi South 15.0 mph 24.2 mph N/A   Clear
3:53 PM 100.9 °F - 52.0 °F 19% 29.70 in 10.0 mi SW 13.8 mph 23.0 mph N/A   Clear
4:53 PM 100.9 °F 99.1 °F 54.0 °F 21% 29.69 in 10.0 mi South 16.1 mph 25.3 mph N/A   Clear
5:53 PM 100.9 °F 98.7 °F 53.1 °F 20% 29.67 in 10.0 mi South 16.1 mph 24.2 mph N/A   Clear
6:53 PM 99.0 °F - 52.0 °F 21% 29.66 in 10.0 mi South 16.1 mph - N/A   Clear
7:53 PM 97.0 °F - 52.0 °F 22% 29.68 in 10.0 mi South 15.0 mph - N/A   Clear
8:53 PM 89.1 °F 86.9 °F 54.0 °F 30% 29.71 in 10.0 mi SSE 4.6 mph - N/A   Clear
9:53 PM 82.9 °F 82.0 °F 55.0 °F 38% 29.73 in 10.0 mi SSE 10.4 mph - N/A   Clear
10:53 PM 82.9 °F 83.3 °F 61.0 °F 47% 29.74 in 10.0 mi South 12.7 mph - N/A   Clear
11:53 PM 81.0 °F 82.2 °F 63.0 °F 54% 29.76 in 10.0 mi South 12.7 mph - N/A   Clear